DW3072 Weather Reports


Display with metric or nautical units.
time (UTC)temp
F
wind
direction
speed
MPH
gust
MPH
rain 1hr
in
rain 24hr
in
rain mn
in
humidity
%
barometer
mb
20200225124531 38 356 0.0 0.0 0.00 0.00 0.00 80 1009.8
20200225123519 38 356 0.0 0.0 0.00 0.00 0.00 81 1009.5
20200225122532 38 356 0.0 0.0 0.00 0.00 0.00 80 1009.4
20200225121539 38 356 0.0 0.0 0.00 0.00 0.00 82 1009.2
20200225120537 38 356 0.0 0.0 0.00 0.00 0.00 82 1009.1
20200225115531 38 356 0.0 0.0 0.00 0.00 0.00 83 1009.1
20200225114522 38 356 0.0 0.0 0.00 0.00 0.00 82 1009.3
20200225113529 38 356 0.0 0.0 0.00 0.00 0.00 81 1009.5
20200225112536 38 356 0.0 0.0 0.00 0.00 0.00 80 1009.5
20200225111526 38 356 0.0 0.0 0.00 0.00 0.00 79 1009.5
20200225110552 38 356 0.0 0.0 0.00 0.00 0.00 79 1009.7
20200225105526 38 356 0.0 0.0 0.00 0.00 0.00 79 1009.7
20200225104535 38 356 0.0 0.0 0.00 0.00 0.00 79 1009.9
20200225103530 37 356 0.0 0.0 0.00 0.00 0.00 79 1009.9
20200225102538 37 356 0.0 0.0 0.00 0.00 0.00 79 1010.0
20200225101526 37 356 0.0 0.0 0.00 0.00 0.00 77 1010.0
20200225100544 37 356 0.0 0.0 0.00 0.00 0.00 77 1010.0
20200225095525 37 356 0.0 0.0 0.00 0.00 0.00 78 1010.0
20200225094534 37 356 0.0 0.0 0.00 0.00 0.00 79 1010.1
20200225093522 37 356 0.0 0.0 0.00 0.00 0.00 79 1010.0
20200225092530 37 356 0.0 0.0 0.00 0.00 0.00 78 1010.1
20200225091522 37 356 0.0 0.0 0.00 0.00 0.00 77 1010.2
20200225090541 37 356 0.0 0.0 0.00 0.00 0.00 76 1010.6
20200225085536 37 356 0.0 0.0 0.00 0.00 0.00 77 1010.4
20200225084524 37 356 0.0 0.0 0.00 0.00 0.00 77 1010.8
20200225083519 37 356 0.0 0.0 0.00 0.00 0.00 76 1010.5
20200225082531 37 356 0.0 0.0 0.00 0.00 0.00 77 1010.5
20200225081520 37 356 0.0 0.0 0.00 0.00 0.00 77 1010.3
20200225080546 36 356 0.0 0.0 0.00 0.00 0.00 78 1010.3
20200225075523 36 356 0.0 0.0 0.00 0.00 0.00 77 1010.4
20200225074531 36 356 0.0 0.0 0.00 0.00 0.00 76 1010.4
20200225073539 36 356 0.0 0.0 0.00 0.00 0.00 77 1010.2
20200225072531 36 356 0.0 0.0 0.00 0.00 0.00 77 1010.4
20200225071520 36 356 0.0 0.0 0.00 0.00 0.00 77 1010.2
20200225070541 35 356 0.0 0.0 0.00 0.00 0.00 75 1010.2
20200225065534 35 356 0.0 0.0 0.00 0.00 0.00 75 1010.4
20200225064526 36 356 0.0 0.0 0.00 0.00 0.00 75 1010.5
20200225063534 36 356 0.0 0.0 0.00 0.00 0.00 74 1010.2
20200225062524 36 356 0.0 0.0 0.00 0.00 0.00 74 1010.4
20200225061534 36 356 0.0 0.0 0.00 0.00 0.00 73 1010.3
20200225060536 37 356 0.0 0.0 0.00 0.00 0.00 73 1010.4
20200225055531 37 356 0.0 0.0 0.00 0.00 0.00 72 1010.6
20200225054539 38 356 0.0 0.0 0.00 0.00 0.00 73 1010.7
20200225053530 38 356 0.0 0.0 0.00 0.00 0.00 72 1010.7
20200225052538 38 356 0.0 0.0 0.00 0.00 0.00 71 1010.8
20200225051525 38 356 0.0 0.0 0.00 0.00 0.00 71 1011.1
20200225050547 38 356 0.0 0.0 0.00 0.00 0.00 70 1011.0
20200225045525 38 356 0.0 0.0 0.00 0.00 0.00 70 1011.0
20200225044533 38 356 0.0 0.0 0.00 0.00 0.00 69 1010.8
20200225043525 38 356 0.0 0.0 0.00 0.00 0.00 69 1010.8
20200225042535 38 356 0.0 0.0 0.00 0.00 0.00 68 1010.7
20200225041526 39 356 0.0 0.0 0.00 0.00 0.00 68 1010.9
20200225040547 39 356 0.0 0.0 0.00 0.00 0.00 68 1011.2
20200225035524 39 356 0.0 0.0 0.00 0.00 0.00 67 1011.5
20200225034532 39 356 0.0 0.0 0.00 0.00 0.00 67 1011.7
20200225033525 39 356 0.0 0.0 0.00 0.00 0.00 66 1011.7
20200225032536 39 356 0.0 0.0 0.00 0.00 0.00 66 1011.8
20200225031527 39 356 0.0 0.0 0.00 0.00 0.00 65 1011.9
20200225030549 39 356 0.0 0.0 0.00 0.00 0.00 65 1011.9
20200225025522 39 356 0.0 0.0 0.00 0.00 0.00 63 1011.9
20200225024530 39 356 0.0 0.0 0.00 0.00 0.00 64 1012.0
20200225023536 39 356 0.0 0.0 0.00 0.00 0.00 64 1012.0
20200225022527 39 356 0.0 0.0 0.00 0.00 0.00 64 1012.2
20200225021535 39 356 0.0 0.0 0.00 0.00 0.00 64 1012.0
20200225020534 39 356 0.0 0.0 0.00 0.00 0.00 63 1012.0
20200225015531 40 356 0.0 0.0 0.00 0.00 0.00 63 1012.1
20200225014523 40 356 0.0 0.0 0.00 0.00 0.00 62 1011.9
20200225013531 40 356 0.0 0.0 0.00 0.00 0.00 61 1011.7
20200225012539 41 356 0.0 0.0 0.00 0.00 0.00 60 1011.7
20200225011527 41 356 0.0 0.0 0.00 0.00 0.00 60 1011.7
20200225010549 41 356 0.0 0.0 0.00 0.00 0.00 60 1011.6
20200225005526 41 356 0.0 0.0 0.00 0.00 0.00 59 1011.7
20200225004533 42 356 0.0 0.0 0.00 0.00 0.00 59 1011.7
20200225003525 42 356 0.0 0.0 0.00 0.00 0.00 57 1012.0
20200225002534 43 356 0.0 0.0 0.00 0.00 0.00 56 1012.1
20200225001522 43 356 0.0 0.0 0.00 0.00 0.00 55 1012.2
20200225000547 43 356 0.0 0.0 0.00 0.00 0.00 55 1012.2
20200224235538 44 356 0.0 0.0 0.00 0.00 0.00 52 1012.2
20200224234526 44 356 0.0 0.0 0.00 0.00 0.00 53 1012.4
20200224233534 44 356 0.0 0.0 0.00 0.00 0.00 49 1012.5
20200224232540 45 356 0.0 0.0 0.00 0.00 0.00 49 1012.4
20200224231531 46 356 0.0 0.0 0.00 0.00 0.00 49 1012.4
20200224230549 46 356 0.0 0.0 0.00 0.00 0.00 47 1012.6
20200224225540 48 356 0.0 0.0 0.00 0.00 0.00 44 1012.5
20200224224527 50 356 0.0 0.0 0.00 0.00 0.00 39 1012.2
20200224223538 51 356 0.0 0.0 0.00 0.00 0.00 37 1011.8
20200224222525 52 356 0.0 0.0 0.00 0.00 0.00 34 1011.0
20200224221532 53 356 0.0 3.0 0.00 0.00 0.00 33 1010.8
20200224220549 54 9 0.0 2.0 0.00 0.00 0.00 32 1011.0
20200224215526 55 30 0.0 3.0 0.00 0.00 0.00 30 1011.3
20200224214533 56 223 0.0 0.0 0.00 0.00 0.00 29 1011.3
20200224213523 57 222 0.0 4.0 0.00 0.00 0.00 29 1011.4
20200224212531 57 335 1.0 3.0 0.00 0.00 0.00 29 1011.5
20200224211541 58 311 0.0 4.0 0.00 0.00 0.00 28 1011.9
20200224210539 58 333 0.0 3.0 0.00 0.00 0.00 28 1011.9
20200224205532 58 307 1.0 5.0 0.00 0.00 0.00 27 1012.1
20200224204526 58 275 1.0 4.0 0.00 0.00 0.00 28 1012.0
20200224203533 58 1 0.0 2.0 0.00 0.00 0.00 28 1012.2
20200224202540 58 42 2.0 5.0 0.00 0.00 0.00 27 1012.4
20200224201527 59 236 1.0 4.0 0.00 0.00 0.00 27 1012.4
20200224200549 59 302 0.0 4.0 0.00 0.00 0.00 27 1012.6
20200224195526 59 315 0.0 7.0 0.00 0.00 0.00 26 1012.6
20200224194536 59 356 1.0 4.0 0.00 0.00 0.00 28 1012.9
20200224193522 58 167 0.0 2.0 0.00 0.00 0.00 29 1012.8
20200224192533 58 320 0.0 1.0 0.00 0.00 0.00 27 1013.1
20200224191540 58 198 2.0 5.0 0.00 0.00 0.00 30 1013.1
20200224190538 59 319 0.0 4.0 0.00 0.00 0.00 29 1013.2
20200224185531 59 331 1.0 4.0 0.00 0.00 0.00 28 1013.5
20200224184523 59 205 1.0 5.0 0.00 0.00 0.00 25 1013.5
20200224183532 58 295 2.0 7.0 0.00 0.00 0.00 25 1013.5
20200224182539 58 161 0.0 7.0 0.00 0.00 0.00 28 1013.6
20200224181526 59 289 2.0 5.0 0.00 0.00 0.00 26 1013.9
20200224180551 59 257 0.0 6.0 0.00 0.00 0.00 25 1013.9
20200224175525 59 343 0.0 5.0 0.00 0.00 0.00 26 1013.9
20200224174532 59 119 1.0 5.0 0.00 0.00 0.00 24 1014.1
20200224173523 58 348 0.0 5.0 0.00 0.00 0.00 27 1014.2
20200224172530 58 5 0.0 1.0 0.00 0.00 0.00 26 1014.4
20200224171540 58 58 0.0 3.0 0.00 0.00 0.00 26 1014.5
20200224170540 58 178 0.0 3.0 0.00 0.00 0.00 27 1014.6
20200224165537 57 290 0.0 4.0 0.00 0.00 0.00 29 1014.7
20200224164526 57 302 1.0 3.0 0.00 0.00 0.00 29 1014.8
20200224163532 57 302 1.0 5.0 0.00 0.00 0.00 28 1015.0
20200224162542 57 331 0.0 4.0 0.00 0.00 0.00 31 1015.1
20200224161532 56 287 2.0 5.0 0.00 0.00 0.00 28 1015.2
20200224160551 56 284 0.0 2.0 0.00 0.00 0.00 31 1015.3
20200224155523 56 245 0.0 4.0 0.00 0.00 0.00 30 1015.4
20200224154530 55 311 2.0 6.0 0.00 0.00 0.00 30 1015.4
20200224153541 53 265 0.0 0.0 0.00 0.00 0.00 33 1015.4
20200224152530 50 241 0.0 0.0 0.00 0.00 0.00 37 1015.4
20200224151537 48 241 0.0 0.0 0.00 0.00 0.00 43 1015.5
20200224150555 45 239 0.0 0.0 0.00 0.00 0.00 45 1015.6
20200224145531 42 239 0.0 0.0 0.00 0.00 0.00 53 1015.7
20200224144521 40 239 0.0 0.0 0.00 0.00 0.00 52 1015.9
20200224143531 39 239 0.0 0.0 0.00 0.00 0.00 57 1015.9
20200224142537 37 239 0.0 0.0 0.00 0.00 0.00 65 1015.9
20200224141531 35 239 0.0 0.0 0.00 0.00 0.00 67 1015.9
20200224140549 33 239 0.0 0.0 0.00 0.00 0.00 71 1015.8
20200224135542 31 239 0.0 0.0 0.00 0.00 0.00 71 1016.0
20200224134533 29 239 0.0 0.0 0.00 0.00 0.00 75 1016.1
20200224133519 28 239 0.0 0.0 0.00 0.00 0.00 77 1016.2
20200224132530 26 239 0.0 0.0 0.00 0.00 0.00 82 1016.1
20200224131537 25 239 0.0 0.0 0.00 0.00 0.00 84 1016.1
20200224130539 24 239 0.0 0.0 0.00 0.00 0.00 84 1016.2
20200224125532 24 239 0.0 0.0 0.00 0.00 0.00 85 1016.1